Location: Cheching
(60.0667°N, 164.2167°W)
Time: 01:10:09
(UTC+00:00)

METEOR M2 - Visible Passes

Search period start: 24 January 2021 00:00
Search period end: 03 February 2021 00:00
Orbit: 819 x 827 km, 98.5° (Epoch: 23 January)

Date Brightness Start Highest point End Pass type
(mag) Time Alt. Az. Time Alt. Az. Time Alt. Az.
24 Jan ? 04:56:35 10° SE 05:01:48 56° ENE 05:07:05 10° NNW visible
24 Jan ? 06:37:16 10° SSW 06:42:15 38° W 06:47:16 10° NNW visible
24 Jan ? 17:06:03 10° ENE 17:07:45 11° ENE 17:09:28 10° E visible
25 Jan ? 04:36:56 10° SE 04:41:59 44° ENE 04:47:05 10° NNW visible
25 Jan ? 06:16:59 10° S 06:22:11 50° W 06:27:26 10° NNW visible
25 Jan ? 08:01:35 10° W 08:03:42 12° WNW 08:05:51 10° NW visible
25 Jan ? 18:24:18 10° NNE 18:29:16 36° E 18:34:12 10° SSE visible
26 Jan ? 04:17:24 10° ESE 04:22:13 35° NE 04:27:03 10° N visible
26 Jan ? 05:56:50 10° S 06:02:10 66° WSW 06:07:33 10° NNW visible
26 Jan ? 07:40:04 10° WSW 07:43:25 17° W 07:46:47 10° NW visible
26 Jan ? 18:04:33 10° NNE 18:09:08 27° E 18:13:41 10° SSE visible
27 Jan ? 03:57:59 10° ESE 04:02:29 28° NE 04:07:01 10° N visible
27 Jan ? 05:36:50 10° SSE 05:42:13 86° WSW 05:47:38 10° NNW visible
27 Jan ? 07:19:05 10° SW 07:23:11 22° W 07:27:18 10° NW visible
27 Jan ? 17:44:55 10° NE 17:48:57 21° E 17:52:57 10° SE visible
28 Jan ? 05:16:57 10° SSE 05:22:18 74° ENE 05:27:41 10° NNW visible
28 Jan ? 06:58:24 10° SSW 07:03:00 29° W 07:07:39 10° NNW visible
28 Jan ? 17:25:30 10° NE 17:28:42 16° E 17:31:55 10° ESE visible
29 Jan ? 04:57:11 10° SE 05:02:26 57° ENE 05:07:42 10° NNW visible
29 Jan ? 06:37:55 10° SSW 06:42:53 37° W 06:47:53 10° NNW visible
29 Jan ? 17:06:33 10° ENE 17:08:24 12° ENE 17:10:15 10° E visible
30 Jan ? 04:37:32 10° SE 04:42:36 45° ENE 04:47:43 10° NNW visible
30 Jan ? 06:17:37 10° S 06:22:49 49° W 06:28:04 10° NNW visible
30 Jan ? 08:02:19 10° W 08:04:21 12° WNW 08:06:24 10° NW visible
30 Jan ? 18:24:55 10° NNE 18:29:55 36° E 18:34:52 10° SSE visible
31 Jan ? 04:18:01 10° ESE 04:22:50 35° NE 04:27:42 10° N visible
31 Jan ? 05:57:28 10° S 06:02:48 65° WSW 06:08:11 10° NNW visible
31 Jan ? 07:40:46 10° WSW 07:44:03 16° W 07:47:23 10° NW visible
31 Jan ? 18:05:11 10° NNE 18:09:47 28° E 18:14:22 10° SSE visible
01 Feb ? 03:58:35 10° ESE 04:03:06 29° NE 04:07:39 10° N visible
01 Feb ? 05:37:27 10° SSE 05:42:50 85° WSW 05:48:16 10° NNW visible
01 Feb ? 07:19:46 10° SW 07:23:49 21° W 07:27:55 10° NW visible
01 Feb ? 17:45:32 10° NE 17:49:35 21° E 17:53:39 10° SE visible
02 Feb ? 05:17:34 10° SSE 05:22:55 75° ENE 05:28:19 10° NNW visible
02 Feb ? 06:59:03 10° SSW 07:03:39 28° W 07:08:15 10° NNW visible
02 Feb ? 17:26:05 10° NE 17:29:21 16° E 17:32:38 10° ESE visible
